StationID,Date,MaxTemp,MinTemp,Precipitation,Snowfall,SnowDepth
"CA1BC000004","2014-08-22",,,0.00,0.00,0.00
"CA1BC000004","2014-08-31",,,0.00,0.00,0.00
"CA1BC000004","2014-09-01",,,0.00,0.00,0.00
"CA1BC000004","2014-09-02",,,0.00,0.00,0.00
"CA1BC000004","2014-09-03",,,64.00,0.00,0.00
"CA1BC000004","2014-09-04",,,0.00,0.00,0.00
"CA1BC000004","2014-09-06",,,0.00,0.00,0.00
"CA1BC000004","2014-09-07",,,0.00,0.00,0.00
"CA1BC000004","2014-09-08",,,0.00,0.00,0.00
"CA1BC000004","2014-09-09",,,3.00,0.00,0.00
"CA1BC000004","2014-09-10",,,0.00,0.00,0.00
"CA1BC000004","2014-09-11",,,0.00,0.00,0.00
"CA1BC000004","2014-09-12",,,0.00,0.00,0.00
"CA1BC000004","2014-09-13",,,0.00,0.00,0.00
"CA1BC000004","2014-09-14",,,0.00,0.00,0.00
"CA1BC000004","2014-09-15",,,0.00,0.00,0.00
"CA1BC000004","2014-09-16",,,0.00,0.00,0.00
"CA1BC000004","2014-09-17",,,0.00,0.00,0.00
"CA1BC000004","2014-09-18",,,13.00,0.00,0.00
"CA1BC000004","2014-09-19",,,3.00,0.00,0.00
"CA1BC000004","2014-09-20",,,0.00,0.00,0.00
"CA1BC000004","2014-09-21",,,0.00,0.00,0.00
"CA1BC000004","2014-09-22",,,3.00,0.00,0.00
"CA1BC000004","2014-09-23",,,46.00,0.00,0.00
"CA1BC000004","2014-09-24",,,48.00,0.00,0.00
"CA1BC000004","2014-09-25",,,5.00,0.00,0.00
"CA1BC000004","2014-09-26",,,58.00,0.00,0.00
"CA1BC000004","2014-09-27",,,10.00,0.00,
"CA1BC000004","2014-09-28",,,0.00,0.00,0.00
"CA1BC000004","2014-09-29",,,0.00,0.00,0.00
"CA1BC000004","2014-09-30",,,3.00,0.00,0.00
"CA1BC000004","2014-10-01",,,3.00,0.00,0.00
"CA1BC000004","2014-10-02",,,0.00,0.00,0.00
"CA1BC000004","2014-10-03",,,0.00,0.00,0.00
"CA1BC000004","2014-10-04",,,18.00,0.00,0.00
"CA1BC000004","2014-10-05",,,0.00,0.00,0.00
"CA1BC000004","2014-10-06",,,0.00,0.00,0.00
"CA1BC000004","2014-10-07",,,0.00,0.00,0.00
"CA1BC000004","2014-10-08",,,0.00,0.00,0.00
"CA1BC000004","2014-10-09",,,0.00,0.00,0.00
"CA1BC000004","2014-10-10",,,0.00,0.00,0.00
"CA1BC000004","2014-10-11",,,0.00,0.00,0.00
"CA1BC000004","2014-10-12",,,5.00,0.00,0.00
"CA1BC000004","2014-10-13",,,8.00,0.00,0.00
"CA1BC000004","2014-10-14",,,13.00,0.00,0.00
"CA1BC000004","2014-10-15",,,0.00,0.00,0.00
"CA1BC000004","2014-10-16",,,10.00,0.00,0.00
"CA1BC000004","2014-10-17",,,0.00,0.00,0.00
"CA1BC000004","2014-10-18",,,10.00,0.00,0.00
"CA1BC000004","2014-10-19",,,0.00,0.00,0.00
"CA1BC000004","2014-10-20",,,0.00,0.00,0.00
"CA1BC000004","2014-10-21",,,13.00,0.00,0.00
"CA1BC000004","2014-10-22",,,0.00,0.00,0.00
"CA1BC000004","2014-10-23",,,28.00,0.00,0.00
"CA1BC000004","2014-10-24",,,10.00,0.00,0.00
"CA1BC000004","2014-10-25",,,8.00,0.00,0.00
"CA1BC000004","2014-10-26",,,3.00,0.00,0.00
"CA1BC000004","2014-10-27",,,8.00,0.00,0.00
"CA1BC000004","2014-10-28",,,8.00,0.00,0.00
"CA1BC000004","2014-10-29",,,0.00,0.00,0.00
"CA1BC000004","2014-10-30",,,0.00,0.00,0.00
"CA1BC000004","2014-10-31",,,61.00,0.00,0.00
"CA1BC000004","2014-11-01",,,25.00,0.00,0.00
"CA1BC000004","2014-11-02",,,0.00,0.00,0.00
"CA1BC000004","2014-11-03",,,0.00,0.00,0.00
"CA1BC000004","2014-11-04",,,8.00,0.00,0.00
"CA1BC000004","2014-11-05",,,0.00,0.00,0.00
"CA1BC000004","2014-11-06",,,3.00,0.00,0.00
"CA1BC000004","2014-11-07",,,0.00,0.00,0.00
"CA1BC000004","2014-11-08",,,0.00,0.00,0.00
"CA1BC000004","2014-11-11",,,0.00,0.00,0.00
"CA1BC000004","2014-11-12",,,0.00,0.00,0.00
"CA1BC000004","2014-11-13",,,0.00,0.00,0.00
"CA1BC000004","2014-11-14",,,0.00,0.00,0.00
"CA1BC000004","2014-11-16",,,0.00,0.00,0.00
"CA1BC000004","2014-11-20",,,0.00,0.00,0.00
"CA1BC000004","2014-11-21",,,0.00,0.00,0.00
"CA1BC000004","2014-11-22",,,36.00,0.00,0.00
"CA1BC000004","2014-11-23",,,0.00,0.00,0.00
"CA1BC000004","2014-11-24",,,5.00,0.00,0.00
"CA1BC000004","2014-11-25",,,5.00,0.00,0.00
"CA1BC000004","2014-11-27",,,97.00,0.00,0.00
"CA1BC000004","2014-11-28",,,0.00,0.00,0.00
"CA1BC000004","2014-11-30",,,0.00,0.00,0.00
"CA1BC000004","2014-12-01",,,0.00,0.00,0.00
"CA1BC000004","2014-12-02",,,0.00,0.00,0.00
"CA1BC000004","2014-12-03",,,0.00,0.00,0.00
"CA1BC000004","2014-12-04",,,0.00,0.00,0.00
"CA1BC000004","2014-12-06",,,0.00,0.00,13.00
"CA1BC000004","2014-12-07",,,56.00,0.00,0.00
"CA1BC000004","2014-12-08",,,0.00,0.00,0.00
"CA1BC000004","2014-12-09",,,0.00,0.00,0.00
"CA1BC000004","2014-12-10",,,0.00,0.00,0.00
"CA1BC000004","2014-12-11",,,0.00,0.00,
"CA1BC000004","2014-12-12",,,0.00,0.00,0.00
"CA1BC000004","2014-12-13",,,0.00,0.00,0.00
"CA1BC000004","2014-12-14",,,0.00,0.00,0.00
"CA1BC000004","2014-12-15",,,0.00,0.00,0.00
"CA1BC000004","2014-12-16",,,0.00,0.00,0.00
"CA1BC000004","2014-12-17",,,0.00,0.00,0.00
"CA1BC000004","2014-12-18",,,28.00,0.00,0.00
"CA1BC000004","2014-12-19",,,0.00,0.00,0.00
"CA1BC000004","2015-01-04",,,28.00,13.00,13.00
"CA1BC000004","2015-01-06",,,127.00,102.00,279.00
"CA1BC000004","2015-01-07",,,0.00,0.00,254.00
"CA1BC000004","2015-01-08",,,0.00,0.00,152.00
"CA1BC000004","2015-01-09",,,0.00,0.00,114.00
"CA1BC000004","2015-01-10",,,13.00,13.00,114.00
"CA1BC000004","2015-01-11",,,0.00,0.00,102.00
"CA1BC000004","2015-01-12",,,0.00,0.00,76.00
"CA1BC000004","2015-01-13",,,0.00,0.00,64.00
"CA1BC000004","2015-01-16",,,0.00,0.00,51.00
"CA1BC000004","2015-01-18",,,165.00,76.00,102.00
"CA1BC000004","2015-01-19",,,0.00,0.00,0.00
"CA1BC000004","2015-01-21",,,0.00,0.00,0.00
"CA1BC000004","2015-01-26",,,0.00,0.00,
"CA1BC000004","2015-01-28",,,0.00,0.00,
"CA1BC000004","2015-01-29",,,0.00,0.00,
"CA1BC000004","2015-03-06",,,0.00,0.00,0.00
"CA1BC000004","2015-03-07",,,0.00,0.00,0.00
"CA1BC000004","2015-03-09",,,0.00,0.00,0.00
"CA1BC000004","2015-03-10",,,0.00,0.00,0.00
"CA1BC000004","2015-03-11",,,0.00,0.00,0.00
"CA1BC000004","2015-03-13",,,0.00,0.00,0.00
"CA1BC000004","2015-03-14",,,0.00,0.00,0.00
"CA1BC000004","2015-03-15",,,0.00,0.00,0.00
"CA1BC000004","2015-03-16",,,28.00,0.00,0.00
"CA1BC000004","2015-03-17",,,0.00,0.00,0.00
"CA1BC000004","2015-03-18",,,0.00,0.00,0.00
"CA1BC000004","2015-03-19",,,3.00,0.00,0.00
"CA1BC000004","2015-03-20",,,36.00,0.00,0.00
"CA1BC000004","2015-03-21",,,28.00,0.00,0.00
"CA1BC000004","2015-03-22",,,0.00,0.00,0.00
"CA1BC000004","2015-03-23",,,0.00,0.00,0.00
"CA1BC000004","2015-03-24",,,20.00,0.00,0.00
"CA1BC000004","2015-03-25",,,20.00,0.00,0.00
"CA1BC000004","2015-03-26",,,107.00,0.00,0.00
"CA1BC000004","2015-03-27",,,5.00,0.00,0.00
"CA1BC000004","2015-03-28",,,0.00,0.00,0.00
"CA1BC000004","2015-03-29",,,0.00,0.00,0.00
"CA1BC000004","2015-03-30",,,0.00,0.00,0.00
"CA1BC000004","2015-03-31",,,0.00,0.00,0.00
"CA1BC000004","2015-04-01",,,8.00,0.00,0.00
"CA1BC000004","2015-04-02",,,5.00,0.00,0.00
"CA1BC000004","2015-04-03",,,0.00,0.00,0.00
"CA1BC000004","2015-04-04",,,0.00,0.00,0.00
"CA1BC000004","2015-04-05",,,0.00,0.00,0.00
"CA1BC000004","2015-04-06",,,0.00,0.00,0.00
"CA1BC000004","2015-04-07",,,0.00,0.00,0.00
"CA1BC000004","2015-04-08",,,0.00,0.00,0.00
"CA1BC000004","2015-04-09",,,0.00,0.00,0.00
"CA1BC000004","2015-04-10",,,0.00,0.00,0.00
"CA1BC000004","2015-04-11",,,0.00,0.00,0.00
"CA1BC000004","2015-04-12",,,0.00,0.00,0.00
"CA1BC000004","2015-04-14",,,5.00,0.00,0.00
"CA1BC000004","2015-04-15",,,0.00,0.00,0.00
"CA1BC000004","2015-04-16",,,0.00,0.00,0.00
"CA1BC000004","2015-04-17",,,0.00,0.00,0.00
"CA1BC000004","2015-04-19",,,0.00,0.00,0.00
"CA1BC000004","2015-04-20",,,0.00,0.00,0.00
"CA1BC000004","2015-04-21",,,0.00,0.00,0.00
"CA1BC000004","2015-04-22",,,0.00,0.00,0.00
"CA1BC000004","2015-04-23",,,0.00,0.00,0.00
"CA1BC000004","2015-04-24",,,13.00,0.00,0.00
"CA1BC000004","2015-04-25",,,20.00,0.00,0.00
"CA1BC000004","2015-04-26",,,13.00,0.00,0.00
"CA1BC000004","2015-04-27",,,0.00,0.00,0.00
"CA1BC000004","2015-04-28",,,0.00,0.00,0.00
"CA1BC000004","2015-04-29",,,0.00,0.00,0.00
"CA1BC000004","2015-04-30",,,0.00,0.00,0.00
"CA1BC000004","2015-05-01",,,0.00,0.00,0.00
"CA1BC000004","2015-05-02",,,0.00,0.00,0.00
"CA1BC000004","2015-05-03",,,0.00,0.00,0.00
"CA1BC000004","2015-05-04",,,0.00,0.00,0.00
"CA1BC000004","2015-05-05",,,10.00,0.00,0.00
"CA1BC000004","2015-05-06",,,0.00,0.00,0.00
"CA1BC000004","2015-05-07",,,0.00,0.00,0.00
"CA1BC000004","2015-05-08",,,0.00,0.00,0.00
"CA1BC000004","2015-05-09",,,0.00,0.00,0.00
"CA1BC000004","2015-05-10",,,0.00,0.00,0.00
"CA1BC000004","2015-05-11",,,0.00,0.00,0.00
"CA1BC000004","2015-05-12",,,0.00,0.00,0.00
"CA1BC000004","2015-05-13",,,0.00,0.00,0.00
"CA1BC000004","2015-05-16",,,0.00,0.00,0.00
"CA1BC000004","2015-05-17",,,178.00,0.00,0.00
"CA1BC000004","2015-05-19",,,0.00,0.00,0.00
"CA1BC000004","2015-05-20",,,0.00,0.00,0.00
"CA1BC000004","2015-05-21",,,0.00,0.00,0.00
"CA1BC000004","2015-05-22",,,0.00,0.00,0.00
"CA1BC000004","2015-05-23",,,0.00,0.00,0.00
"CA1BC000004","2015-05-24",,,3.00,0.00,0.00
"CA1BC000004","2015-05-25",,,28.00,0.00,0.00
"CA1BC000004","2015-05-26",,,38.00,0.00,0.00
"CA1BC000004","2015-05-27",,,10.00,0.00,0.00
"CA1BC000004","2015-05-29",,,0.00,0.00,0.00
"CA1BC000004","2015-05-30",,,10.00,0.00,0.00
"CA1BC000004","2015-05-31",,,10.00,0.00,0.00
"CA1BC000004","2015-06-01",,,0.00,0.00,0.00
"CA1BC000004","2015-06-02",,,168.00,0.00,0.00
"CA1BC000004","2015-06-03",,,15.00,0.00,0.00
"CA1BC000004","2015-06-04",,,114.00,0.00,0.00
"CA1BC000004","2015-06-05",,,5.00,0.00,0.00
"CA1BC000004","2015-06-07",,,0.00,0.00,0.00
"CA1BC000004","2015-06-08",,,0.00,0.00,0.00
"CA1BC000004","2015-06-11",,,0.00,0.00,0.00
"CA1BC000004","2015-06-12",,,0.00,0.00,0.00
"CA1BC000004","2015-06-13",,,0.00,0.00,0.00
"CA1BC000004","2015-06-14",,,0.00,0.00,0.00
"CA1BC000004","2015-06-15",,,0.00,0.00,0.00
"CA1BC000004","2015-06-16",,,0.00,0.00,0.00
"CA1BC000004","2015-06-17",,,0.00,0.00,0.00
"CA1BC000004","2015-06-18",,,0.00,0.00,0.00
"CA1BC000004","2015-06-20",,,0.00,0.00,0.00
"CA1BC000004","2015-06-22",,,0.00,0.00,0.00
"CA1BC000004","2015-06-23",,,8.00,0.00,0.00
"CA1BC000004","2015-06-24",,,0.00,0.00,0.00
"CA1BC000004","2015-06-25",,,0.00,0.00,0.00
"CA1BC000004","2015-06-26",,,0.00,0.00,0.00
"CA1BC000004","2015-06-27",,,0.00,0.00,0.00
"CA1BC000004","2015-06-29",,,10.00,0.00,0.00
"CA1BC000004","2015-06-30",,,56.00,0.00,0.00
"CA1BC000004","2015-07-01",,,0.00,0.00,0.00
"CA1BC000004","2015-07-02",,,0.00,0.00,0.00
"CA1BC000004","2015-07-05",,,0.00,0.00,0.00
"CA1BC000004","2015-07-06",,,0.00,0.00,0.00
"CA1BC000004","2015-07-08",,,0.00,0.00,0.00
"CA1BC000004","2015-07-09",,,0.00,0.00,0.00
"CA1BC000004","2015-07-10",,,0.00,0.00,0.00
"CA1BC000004","2015-07-11",,,0.00,0.00,0.00
"CA1BC000004","2015-07-12",,,79.00,0.00,0.00
"CA1BC000004","2015-07-13",,,0.00,0.00,0.00
"CA1BC000004","2015-07-14",,,0.00,0.00,0.00
"CA1BC000004","2015-07-15",,,0.00,0.00,0.00
"CA1BC000004","2015-07-16",,,0.00,0.00,0.00
"CA1BC000004","2015-07-17",,,0.00,0.00,0.00
"CA1BC000004","2015-07-18",,,0.00,0.00,0.00
"CA1BC000004","2015-07-19",,,0.00,0.00,0.00
"CA1BC000004","2015-07-20",,,0.00,0.00,0.00
"CA1BC000004","2015-07-21",,,0.00,0.00,0.00
"CA1BC000004","2015-07-22",,,0.00,0.00,0.00
"CA1BC000004","2015-07-23",,,0.00,0.00,0.00
"CA1BC000004","2015-07-24",,,0.00,0.00,0.00
"CA1BC000004","2015-07-25",,,66.00,0.00,0.00
"CA1BC000004","2015-07-26",,,8.00,0.00,0.00
"CA1BC000004","2015-07-27",,,58.00,0.00,0.00
"CA1BC000004","2015-07-28",,,15.00,0.00,0.00
"CA1BC000004","2015-07-29",,,0.00,0.00,0.00
"CA1BC000004","2015-07-30",,,0.00,0.00,0.00
"CA1BC000004","2015-07-31",,,0.00,0.00,0.00
"CA1BC000004","2015-08-01",,,0.00,0.00,0.00
"CA1BC000004","2015-08-02",,,0.00,0.00,0.00
"CA1BC000004","2015-08-03",,,0.00,0.00,0.00
"CA1BC000004","2015-08-05",,,0.00,0.00,0.00
"CA1BC000004","2015-08-06",,,13.00,0.00,0.00
"CA1BC000004","2015-08-07",,,8.00,0.00,0.00
"CA1BC000004","2015-08-08",,,0.00,0.00,0.00
"CA1BC000004","2015-08-09",,,0.00,0.00,0.00
"CA1BC000004","2015-08-10",,,0.00,0.00,0.00
"CA1BC000004","2015-08-11",,,0.00,0.00,0.00
"CA1BC000004","2015-08-12",,,0.00,0.00,0.00
"CA1BC000004","2015-08-13",,,0.00,0.00,0.00
"CA1BC000004","2015-08-14",,,0.00,0.00,0.00
"CA1BC000004","2015-08-15",,,5.00,0.00,0.00
"CA1BC000004","2015-08-16",,,0.00,0.00,0.00
"CA1BC000004","2015-08-17",,,0.00,0.00,0.00
"CA1BC000004","2015-08-18",,,0.00,0.00,0.00
"CA1BC000004","2015-08-19",,,0.00,0.00,0.00
"CA1BC000004","2015-08-20",,,0.00,0.00,0.00
"CA1BC000004","2015-08-21",,,0.00,0.00,0.00
"CA1BC000004","2015-08-22",,,5.00,0.00,0.00
"CA1BC000004","2015-08-23",,,0.00,0.00,0.00
"CA1BC000004","2015-08-25",,,0.00,0.00,0.00
"CA1BC000004","2015-08-27",,,0.00,0.00,0.00
"CA1BC000004","2015-08-28",,,0.00,0.00,0.00
"CA1BC000004","2015-08-29",,,3.00,0.00,0.00
"CA1BC000004","2015-08-30",,,51.00,0.00,0.00
"CA1BC000004","2015-08-31",,,0.00,0.00,0.00
"CA1BC000004","2015-09-01",,,0.00,0.00,0.00
"CA1BC000004","2015-09-02",,,0.00,0.00,0.00
"CA1BC000004","2015-09-16",,,0.00,0.00,0.00
"CA1BC000004","2015-09-17",,,0.00,0.00,0.00
"CA1BC000004","2015-09-18",,,0.00,0.00,0.00
"CA1BC000004","2015-09-20",,,8.00,0.00,0.00
"CA1BC000004","2015-09-22",,,0.00,0.00,0.00
"CA1BC000004","2015-09-27",,,8.00,0.00,0.00
"CA1BC000004","2015-09-28",,,0.00,0.00,0.00
"CA1BC000004","2015-09-30",,,0.00,0.00,0.00
"CA1BC000004","2015-10-01",,,0.00,0.00,0.00
"CA1BC000004","2015-10-02",,,0.00,0.00,0.00
"CA1BC000004","2015-10-03",,,81.00,0.00,0.00
"CA1BC000004","2015-10-05",,,0.00,0.00,0.00
"CA1BC000004","2015-10-06",,,0.00,0.00,0.00
"CA1BC000004","2015-10-07",,,0.00,0.00,0.00
"CA1BC000004","2015-10-09",,,0.00,0.00,0.00
"CA1BC000004","2015-10-11",,,61.00,0.00,0.00
"CA1BC000004","2015-10-13",,,0.00,0.00,0.00
"CA1BC000004","2015-10-14",,,0.00,0.00,0.00
"CA1BC000004","2015-10-15",,,0.00,0.00,0.00
"CA1BC000004","2015-10-16",,,0.00,0.00,0.00
"CA1BC000004","2015-10-21",,,53.00,0.00,0.00
"CA1BC000004","2015-10-22",,,0.00,0.00,0.00
"CA1BC000004","2015-10-23",,,0.00,0.00,0.00
"CA1BC000004","2015-10-24",,,0.00,0.00,0.00
"CA1BC000004","2015-10-25",,,0.00,0.00,0.00
"CA1BC000004","2015-10-26",,,23.00,0.00,0.00
"CA1BC000004","2015-10-27",,,8.00,0.00,0.00
"CA1BC000004","2015-10-29",,,51.00,0.00,0.00
"CA1BC000004","2015-10-31",,,132.00,0.00,0.00
"CA1BC000004","2015-11-01",,,28.00,0.00,0.00
"CA1BC000004","2015-11-02",,,28.00,,
"CA1BC000004","2015-11-03",,,5.00,0.00,0.00
"CA1BC000004","2015-11-05",,,0.00,0.00,0.00
"CA1BC000004","2015-11-07",,,18.00,0.00,0.00
"CA1BC000004","2015-11-08",,,30.00,0.00,0.00
"CA1BC000004","2015-11-09",,,0.00,0.00,0.00
"CA1BC000004","2015-11-10",,,0.00,0.00,0.00
"CA1BC000004","2015-11-11",,,5.00,0.00,0.00
"CA1BC000004","2015-11-14",,,33.00,0.00,0.00
"CA1BC000004","2015-11-18",,,284.00,0.00,0.00
"CA1BC000004","2015-11-19",,,0.00,0.00,0.00
"CA1BC000004","2015-11-20",,,0.00,0.00,0.00
"CA1BC000004","2015-11-21",,,0.00,0.00,0.00
"CA1BC000004","2015-11-23",,,0.00,0.00,0.00
"CA1BC000004","2015-11-24",,,43.00,13.00,13.00
"CA1BC000004","2015-11-29",,,0.00,0.00,0.00
"CA1BC000004","2015-11-30",,,0.00,0.00,0.00
"CA1BC000004","2015-12-01",,,0.00,0.00,0.00
"CA1BC000004","2015-12-03",,,0.00,0.00,0.00
"CA1BC000004","2015-12-05",,,0.00,0.00,0.00
"CA1BC000004","2015-12-06",,,51.00,0.00,0.00
"CA1BC000004","2015-12-07",,,0.00,0.00,0.00
"CA1BC000004","2015-12-08",,,0.00,0.00,0.00
"CA1BC000004","2015-12-10",,,127.00,0.00,
"CA1BC000004","2015-12-11",,,8.00,0.00,0.00
"CA1BC000004","2015-12-12",,,0.00,0.00,0.00
"CA1BC000004","2015-12-13",,,20.00,0.00,0.00
"CA1BC000004","2015-12-14",,,36.00,0.00,0.00
"CA1BC000004","2015-12-15",,,0.00,0.00,0.00
"CA1BC000004","2015-12-16",,,8.00,0.00,0.00
"CA1BC000004","2016-01-04",,,,,229.00
"CA1BC000004","2016-01-05",,,43.00,64.00,
"CA1BC000004","2016-01-06",,,64.00,5.00,
"CA1BC000004","2016-01-07",,,25.00,0.00,
"CA1BC000004","2016-01-08",,,0.00,0.00,
"CA1BC000004","2016-01-09",,,0.00,0.00,
"CA1BC000004","2016-01-11",,,0.00,0.00,
"CA1BC000004","2016-01-12",,,10.00,0.00,
"CA1BC000004","2016-01-13",,,25.00,18.00,
"CA1BC000004","2016-01-16",,,66.00,64.00,
"CA1BC000004","2016-01-17",,,61.00,0.00,
"CA1BC000004","2016-01-18",,,0.00,0.00,
"CA1BC000004","2016-01-19",,,0.00,0.00,
"CA1BC000004","2016-01-20",,,318.00,33.00,
"CA1BC000004","2016-01-21",,,0.00,0.00,
"CA1BC000004","2016-01-22",,,0.00,0.00,
"CA1BC000004","2016-01-23",,,0.00,0.00,
"CA1BC000004","2016-01-24",,,157.00,25.00,
"CA1BC000004","2016-01-25",,,0.00,0.00,
"CA1BC000004","2016-01-28",,,8.00,0.00,
"CA1BC000004","2016-01-29",,,0.00,0.00,
"CA1BC000004","2016-01-30",,,56.00,20.00,
"CA1BC000004","2016-01-31",,,46.00,64.00,
"CA1BC000004","2016-02-01",,,28.00,25.00,89.00
"CA1BC000004","2016-02-02",,,13.00,13.00,102.00
"CA1BC000004","2016-02-03",,,5.00,8.00,89.00
"CA1BC000004","2016-02-04",,,51.00,33.00,102.00
"CA1BC000004","2016-02-05",,,0.00,0.00,0.00
"CA1BC000004","2016-02-06",,,0.00,0.00,0.00
"CA1BC000004","2016-02-07",,,0.00,0.00,0.00
"CA1BC000004","2016-02-08",,,0.00,0.00,0.00
"CA1BC000004","2016-02-09",,,0.00,0.00,0.00
"CA1BC000004","2016-02-10",,,0.00,0.00,0.00
"CA1BC000004","2016-02-12",,,89.00,0.00,0.00
"CA1BC000004","2016-02-13",,,0.00,0.00,0.00
"CA1BC000004","2016-02-14",,,0.00,0.00,0.00
"CA1BC000004","2016-02-15",,,0.00,0.00,0.00
"CA1BC000004","2016-02-16",,,5.00,0.00,0.00
"CA1BC000004","2016-02-17",,,0.00,0.00,0.00
"CA1BC000004","2016-02-19",,,89.00,0.00,0.00
"CA1BC000004","2016-02-20",,,8.00,0.00,0.00
"CA1BC000004","2016-02-21",,,0.00,0.00,0.00
"CA1BC000004","2016-02-22",,,0.00,0.00,0.00
"CA1BC000004","2016-02-23",,,0.00,0.00,0.00
"CA1BC000004","2016-02-25",,,0.00,0.00,0.00
"CA1BC000004","2016-02-26",,,0.00,0.00,0.00
"CA1BC000004","2016-02-27",,,8.00,0.00,0.00
"CA1BC000004","2016-02-28",,,13.00,0.00,0.00
"CA1BC000004","2016-03-01",,,8.00,0.00,0.00
"CA1BC000004","2016-03-02",,,114.00,0.00,0.00
"CA1BC000004","2016-03-03",,,8.00,0.00,0.00
"CA1BC000004","2016-03-04",,,0.00,0.00,0.00
"CA1BC000004","2016-03-05",,,10.00,0.00,0.00
"CA1BC000004","2016-03-06",,,61.00,0.00,0.00
"CA1BC000004","2016-03-07",,,0.00,0.00,0.00
"CA1BC000004","2016-03-09",,,0.00,0.00,0.00
"CA1BC000004","2016-03-10",,,61.00,0.00,0.00
"CA1BC000004","2016-03-11",,,0.00,0.00,0.00
"CA1BC000004","2016-03-12",,,0.00,0.00,0.00
"CA1BC000004","2016-03-13",,,15.00,0.00,0.00
"CA1BC000004","2016-03-14",,,5.00,0.00,0.00
"CA1BC000004","2016-03-15",,,5.00,0.00,0.00
"CA1BC000004","2016-03-16",,,0.00,0.00,0.00
"CA1BC000004","2016-03-17",,,5.00,0.00,0.00
"CA1BC000004","2016-03-18",,,0.00,0.00,0.00
"CA1BC000004","2016-03-19",,,0.00,0.00,0.00
"CA1BC000004","2016-03-20",,,0.00,0.00,0.00
"CA1BC000004","2016-03-21",,,10.00,0.00,0.00
"CA1BC000004","2016-03-23",,,8.00,0.00,0.00
"CA1BC000004","2016-03-24",,,41.00,0.00,
"CA1BC000004","2016-03-25",,,0.00,0.00,0.00
"CA1BC000004","2016-03-26",,,0.00,0.00,0.00
"CA1BC000004","2016-03-28",,,76.00,0.00,0.00
"CA1BC000004","2016-03-29",,,0.00,0.00,0.00
"CA1BC000004","2016-03-31",,,0.00,0.00,0.00
"CA1BC000004","2016-04-01",,,0.00,0.00,0.00
"CA1BC000004","2016-04-02",,,0.00,0.00,
"CA1BC000004","2016-04-03",,,0.00,0.00,0.00
"CA1BC000004","2016-04-04",,,15.00,0.00,0.00
"CA1BC000004","2016-04-05",,,15.00,0.00,0.00
"CA1BC000004","2016-04-06",,,0.00,0.00,0.00
"CA1BC000004","2016-04-07",,,0.00,0.00,0.00
"CA1BC000004","2016-04-29",,,0.00,0.00,0.00
"CA1BC000004","2016-04-30",,,5.00,0.00,0.00
"CA1BC000004","2016-05-01",,,0.00,0.00,0.00
"CA1BC000004","2016-05-02",,,0.00,0.00,0.00
"CA1BC000004","2016-05-05",,,114.00,0.00,0.00
"CA1BC000004","2016-05-09",,,0.00,0.00,0.00
"CA1BC000004","2016-05-11",,,0.00,0.00,0.00
"CA1BC000004","2016-05-12",,,193.00,0.00,0.00
"CA1BC000004","2016-05-14",,,0.00,0.00,0.00
"CA1BC000004","2016-05-15",,,0.00,0.00,0.00
"CA1BC000004","2016-05-16",,,0.00,0.00,0.00
"CA1BC000004","2016-05-17",,,0.00,0.00,0.00
"CA1BC000004","2016-05-21",,,51.00,0.00,0.00
"CA1BC000004","2016-05-23",,,0.00,0.00,
"CA1BC000004","2016-05-24",,,43.00,0.00,0.00
"CA1BC000004","2016-05-25",,,0.00,0.00,0.00
"CA1BC000004","2016-05-27",,,20.00,0.00,0.00
"CA1BC000004","2016-05-30",,,28.00,0.00,0.00
"CA1BC000004","2016-05-31",,,0.00,0.00,0.00
"CA1BC000004","2016-06-03",,,0.00,0.00,0.00
"CA1BC000004","2016-06-04",,,0.00,0.00,0.00
"CA1BC000004","2016-06-06",,,0.00,0.00,0.00
"CA1BC000004","2016-06-07",,,0.00,0.00,0.00
"CA1BC000004","2016-06-08",,,0.00,0.00,0.00
"CA1BC000004","2016-06-11",,,114.00,0.00,0.00
"CA1BC000004","2016-06-13",,,8.00,0.00,0.00
"CA1BC000004","2016-06-16",,,0.00,0.00,0.00
"CA1BC000004","2016-06-17",,,0.00,0.00,0.00
"CA1BC000004","2016-06-19",,,91.00,0.00,0.00
"CA1BC000004","2016-06-20",,,0.00,0.00,0.00
"CA1BC000004","2016-06-21",,,15.00,0.00,0.00
"CA1BC000004","2016-06-22",,,0.00,0.00,0.00
"CA1BC000004","2016-07-03",,,0.00,0.00,0.00
"CA1BC000004","2016-07-06",,,107.00,0.00,0.00
"CA1BC000004","2016-07-09",,,140.00,0.00,0.00
"CA1BC000004","2016-07-10",,,64.00,0.00,0.00
"CA1BC000004","2016-07-11",,,0.00,0.00,0.00
"CA1BC000004","2016-07-12",,,0.00,0.00,0.00
"CA1BC000004","2016-07-14",,,0.00,0.00,0.00
"CA1BC000004","2016-07-15",,,33.00,0.00,0.00
"CA1BC000004","2016-07-17",,,41.00,0.00,0.00
"CA1BC000004","2016-07-18",,,0.00,0.00,0.00
"CA1BC000004","2016-07-24",,,0.00,0.00,0.00
"CA1BC000004","2016-07-26",,,0.00,0.00,0.00
"CA1BC000004","2016-07-28",,,0.00,0.00,0.00
"CA1BC000004","2016-07-29",,,0.00,0.00,0.00
"CA1BC000004","2016-07-31",,,0.00,0.00,0.00
"CA1BC000004","2016-08-01",,,30.00,0.00,0.00
"CA1BC000004","2016-08-02",,,0.00,0.00,0.00
"CA1BC000004","2016-08-03",,,56.00,0.00,0.00
"CA1BC000004","2016-08-04",,,0.00,0.00,0.00
"CA1BC000004","2016-08-06",,,0.00,0.00,0.00
"CA1BC000004","2016-08-07",,,0.00,0.00,0.00
"CA1BC000004","2016-08-08",,,114.00,0.00,0.00
"CA1BC000004","2016-08-15",,,0.00,0.00,0.00
"CA1BC000004","2016-08-16",,,0.00,0.00,0.00
"CA1BC000004","2016-08-25",,,0.00,0.00,0.00
"CA1BC000004","2016-08-28",,,0.00,0.00,0.00
"CA1BC000004","2016-08-29",,,0.00,0.00,0.00
"CA1BC000004","2016-08-30",,,0.00,0.00,0.00
"CA1BC000004","2016-08-31",,,0.00,0.00,0.00
"CA1BC000004","2016-09-01",,,0.00,0.00,0.00
"CA1BC000004","2016-09-02",,,25.00,0.00,0.00
"CA1BC000004","2016-09-03",,,33.00,0.00,0.00
"CA1BC000004","2016-09-04",,,23.00,0.00,0.00
"CA1BC000004","2016-09-05",,,13.00,0.00,0.00
"CA1BC000004","2016-09-06",,,10.00,0.00,0.00
"CA1BC000004","2016-09-07",,,13.00,0.00,0.00
"CA1BC000004","2016-09-12",,,0.00,0.00,0.00
"CA1BC000004","2016-10-03",,,0.00,0.00,0.00
"CA1BC000004","2016-10-04",,,0.00,0.00,0.00
"CA1BC000004","2016-10-05",,,0.00,0.00,0.00
"CA1BC000004","2016-10-06",,,241.00,0.00,0.00
"CA1BC000004","2016-10-07",,,89.00,0.00,0.00
"CA1BC000004","2016-10-08",,,51.00,0.00,0.00
"CA1BC000004","2016-10-09",,,51.00,0.00,0.00
"CA1BC000004","2016-10-10",,,5.00,0.00,0.00
"CA1BC000004","2016-10-11",,,5.00,0.00,0.00
"CA1BC000004","2016-10-12",,,0.00,0.00,0.00
"CA1BC000004","2016-10-13",,,64.00,0.00,0.00
"CA1BC000004","2016-10-14",,,114.00,0.00,0.00
"CA1BC000004","2016-10-15",,,0.00,0.00,0.00
